Location: Zilina
(49.2167°N, 18.7333°E)
Time: 02:43:47
(UTC+01:00)

ISS - Visible Passes

Search period start: 16 December 2017 00:00
Search period end: 26 December 2017 00:00
Orbit: 402 x 406 km, 51.6° (Epoch: 16 December)

Date Brightness Start Highest point End Pass type
(mag) Time Alt. Az. Time Alt. Az. Time Alt. Az.
16 Dec -1.3 17:05:13 10° W 17:07:55 23° SW 17:10:36 10° SSE visible
18 Dec -0.4 16:58:09 10° WSW 16:59:34 12° SW 17:00:59 10° SSW visible
24 Dec 0.3 06:56:45 10° SE 06:57:12 10° SE 06:57:39 10° SE visible
